sat.trackr.live / text

‹ back to catalog

STARLINK-36280

NORAD 67211 · 2025-304V

PAYLOAD ACTIVE UNKNOWN

§ Identity

Operator
Country
US
Launch date
2025-12-17
Launch site
AFWTR
Launch vehicle
Mass (kg)
RCS (m²)

Purposes: comms

External: N2YO · Heavens-Above · Gunter

§ Orbital elements

Epoch: 2026-05-24T23:33:37.050048Z

Period
96.11 min
Inclination
70.0014°
Eccentricity
0.0002192
Mean motion
14.98342365 rev/d
Perigee alt
570.5 km
Apogee alt
573.5 km
Semi-major
6,950.2 km
B*
4.0078e-4
RAAN
342.0532°
Arg perigee
264.4181°
Mean anomaly
95.6728°
Rev number
2,531

§ Raw data

STARLINK-362801 67211U 25304V   26144.98167882  .00004694  00000+0  40078-3 0  99912 67211  70.0014 342.0532 0002192 264.4181  95.6728 14.98342365 25313

JSON: /api/v1/satellites/67211 · /tle

For live sub-satellite position, see the globe view (requires WebGL).

§ Visibility from observer

Set your observer location to see the next 7 days of passes ≥ 10°. The values pass through the URL so the page stays shareable.

No JS? Fill the form by hand. The geolocation button needs JavaScript.